STARLINK-37617, 69314

Orbit data source: Space-Track

STARLINK-37617, 69314 is a payload satellite owned by SpaceX/Seattle (US) in SSO that was launched on Sat, 30 May 2026 UTC via an FALCON 9 launch vehicle from the Air Force Western Test Range (AFWTR). Payload-class satellites include a variety of spacecraft equipped with specific instruments for various scientific and technological missions. These include communications satellites like Starlink; space stations such as the ISS; scientific satellites like the Hubble; Earth observation satellites from companies like Planet Labs, Umbra, and HawkEye 360; GPS; miniature CubeSats for education and research; and military/defense satellites.

Loading next visibility...
Identifier
69314, 2026-119U
Orbit
SSO
Country
Flag of USUS
Related business
Manufacturer
SpaceX/Seattle
Mission
Operational spacecraft
Bus & Motor
STARLINK V2MO, Unknown motor
Mass
575 kg wet, ~530 kg dry
Launch date (UTC)
2026-05-30 (2 months ago)
Launch vehicle
FALCON 9
Launch site
Air Force Western Test Range (AFWTR)
Object type
Payload
Rocket body
Debris
Shape & HBR
Unknown shape, 17.7 m
Radar Cross Section
Large (>1 m²)

Expand to show TLE details & history
Last TLE update: 15 hours ago

TLE from 15 hours ago
0 STARLINK-37617
1 69314U 26119U   26202.07632395  .00013393  00000-0  41632-3 0  9997
2 69314  97.2853 227.7415 0001392  91.4192 268.7210 15.33452989  9259
Epoch: 2026-07-21T01:49Z
TLE epoch observation values (Epoch: 2026-07-21T01:49:54.389Z)
Latitude
-0.00003°
Longitude
-98.58633°
Altitude
468.653 km
Speed
7.632 km/s
True Right ascension
15h 10m 57s
True Declination
0° 00' 00"
Sunlit
Object was in daylight at epoch
Visualization orbit readout
Latitude
Unknown
Longitude
Unknown
Altitude
Unknown
Speed
Unknown
Apparent Right ascension
Unknown
Apparent Declination
Unknown
Sunlit
N/A
Visualization observer readout
Local Sidereal Time
06:15:22
Azimuth
Unknown
Elevation
Unknown
Doppler factor
Unknown
Orbital elements
Apogee altitude
463.414 km
Perigee altitude
461.51 km
Semi-major axis
6,840.599 km
Eccentricity
0.00014
Inclination
97.2853°
RAAN
227.7415°
Arg. of periapsis
91.4192°
True anomaly
268.70505°
Mean anomaly
268.721°
Eccentric anomaly
268.71303°
Mean motion
3.83621 °/min
Orbital period
93.84 mins
BSTAR
0.00041632
Loading maneuver chart data...
Computing Atmospheric mass density...
Loading historical data...
Loading historical data...
Loading historical data...
Loading historical data...
Loading historical data...
Loading historical data...
Loading historical data...

Documentation

Showing up to 5 results
|